Regional Weather Roundup
Issued by NWS

Home | Current Version | Previous Version | Graphics & Text | Print | Product List | Glossary Off
Versions: 1 2 3 4 5 6 7 8 9 10 11 12 13 14 15 16 17 18 19 20 21 22 23 24 25 26 27 28 29 30 31 32 33 34 35 36 37 38 39 40 41 42 43 44 45 46 47 48 49 50

000
ASUS43 KDMX 070207
RWRIA

WEATHER ROUNDUP FOR IOWA
NATIONAL WEATHER SERVICE DES MOINES IA
900 PM CDT MON JUL 06 2015

NOTE: "FAIR" INDICATES FEW OR NO CLOUDS BELOW 12,000 FEET WITH NO
SIGNIFICANT WEATHER AND/OR OBSTRUCTIONS TO VISIBILITY.

* - THESE STATIONS ARE NOT NWS STATIONS...THUS NOT UNDER NWS
QUALITY CONTROL.  THEY ALSO DO NOT REPORT WEATHER SUCH
AS PRECIPITATION OR FOG.

IAZ001>003-012>014-020>022-031>034-043>046-070300-
   NORTHWEST IOWA

CITY           SKY/WX    TMP DP  RH WIND       PRES   REMARKS
CARROLL *      PTCLDY    68  63  83 N7        29.99R HAZE
CHEROKEE *     MOCLDY    66  57  72 N13G22    30.04R
DENISON *      PTCLDY    68  63  83 N7        29.99R HAZE
LE MARS *      CLEAR     66  55  68 N10G18    30.06R
ORANGE CITY *  CLEAR     64  54  68 N12       30.06R
SHELDON *      CLEAR     63  57  82 N15G21    30.05R
SIOUX CITY     MOCLDY    70  56  61 N12       30.04R HAZE
SPENCER        MOCLDY    66  50  56 N20G28    30.04R
STORM LAKE *   PTCLDY    66  57  72 N14G21    30.03R HAZE
$$

IAZ055>058-069>071-079>083-090>094-070300-
   SOUTHWEST IOWA

CITY           SKY/WX    TMP DP  RH WIND       PRES   REMARKS
ATLANTIC *     PTCLDY    68  61  77 N10       29.98R HAZE
AUDUBON *      CLEAR     66  61  82 N6        30.00R HAZE
CLARINDA *     CLOUDY    70  64  83 N10       29.96S HAZE
COUNCIL BLFS * CLEAR     68  61  77 N8        30.00R HAZE
CRESTON *      CLOUDY    70  63  78 N16       29.95R HAZE
HARLAN  *      CLEAR     68  66  94 N6        30.03R FOG
LAMONI         CLOUDY    71  68  90 N14       29.91R
RED OAK *      CLOUDY    70  61  73 N13G20    29.97R HAZE
SHENANDOAH *   CLOUDY    72  63  73 N12G21    29.97R HAZE
$$

IAZ047>049-059>061-072>074-084-070300-
   CENTRAL IOWA

CITY           SKY/WX    TMP DP  RH WIND       PRES   REMARKS
AMES           CLOUDY    67  59  75 N9        29.96R HAZE
ANKENY *       PTCLDY    68  61  77 N10       29.94R HAZE
CHARITON *     CLOUDY    70  70 100 N10G16    29.91R
DES MOINES     CLOUDY    71  60  68 N13       29.93R HAZE
GRINNELL*      CLOUDY    68  61  77 N13       29.93R HAZE
KNOXVILLE *    CLOUDY    72  64  78 N16G23    29.90R
MARSHALLTOWN   CLOUDY    66  59  78 N10       29.94R HAZE
PELLA *        CLOUDY    68  68 100 N9G17     29.92R
PERRY *        CLOUDY    68  61  77 N9        29.97R HAZE
$$

IAZ004>006-015-016-023>025-035-036-070300-
   NORTH CENTRAL IOWA

CITY           SKY/WX    TMP DP  RH WIND       PRES   REMARKS
ALGONA *       CLOUDY    68  59  73 N7        30.01R HAZE
CLARION *      CLEAR     66  61  82 N6        29.98R HAZE
ESTHERVILLE    PTCLDY    64  54  69 N16G24    30.03R
FORT DODGE *   CLOUDY    66  57  72 N7        29.99R
MASON CITY       N/A     64  59  83 N7        30.00R HAZE
FOREST CITY *  CLEAR     63  59  88 N5        29.99R HAZE
IOWA FALLS *     N/A     66  59  77 N8        29.97R HAZE
$$

IAZ007>011-017>019-026>030-037>042-050>054-066-070300-
   NORTHEAST IOWA

CITY           SKY/WX    TMP DP  RH WIND       PRES   REMARKS
CEDAR RAPIDS   CLOUDY    71  66  84 N13       29.88R
CHARLES CITY * CLEAR     64  61  88 N9        29.97R HAZE
CLINTON *      CLOUDY    72  68  88 SW9       29.88S
DECORAH *        N/A    N/A N/A N/A MISG        N/A
DUBUQUE        CLOUDY    70  67  90 N16G25    29.88R
MONTICELLO *   CLOUDY    70  68  94 N10G24    29.88R
OELWEIN *      PTCLDY    66  59  77 N15G21    29.93R HAZE
WATERLOO       CLOUDY    66  58  75 N14       29.92R HAZE
$$

IAZ064-065-067-068-078-070300-
   EAST CENTRAL IOWA

CITY           SKY/WX    TMP DP  RH WIND       PRES   REMARKS
DAVENPORT      LGT RAIN  71  69  93 S8        29.86F
IOWA CITY      CLOUDY    76  70  82 NW7       29.87S
MT. PLEASANT * DRIZZLE   73  70  88 W3        29.90R
MUSCATINE *    LGT RAIN  72  72 100 S6        29.87S
QUAD CITIES    HVY RAIN  71  69  93 S8        29.86F FOG
$$

IAZ062-063-075>077-085>089-095>099-070300-
   SOUTHEAST IOWA

CITY           SKY/WX    TMP DP  RH WIND       PRES   REMARKS
BURLINGTON     HVY RAIN  72  71  97 CALM      29.90R FOG
FAIRFIELD *    CLOUDY    73  72  94 CALM      29.89R
FORT MADISON * HVY RAIN  72  70  94 CALM      29.91S
KEOKUK *       RAIN      72  72 100 NW8G15    29.88R
OSKALOOSA *    CLOUDY    72  68  88 N9G18     29.90R
CENTERVILLE *  CLOUDY    72  70  94 N6        29.91R
OTTUMWA        CLOUDY    72  71  97 NW5       29.87R
WASHINGTON *   CLOUDY    73  72  94 W5        29.89R
$$

ABBREVIATIONS USED IN REMARKS
   TC - TEMPERATURES IN CELSIUS
  WCI - WIND CHILL INDEX
   HX - HEAT INDEX
  VSB - VISIBILITY
$$




USA.gov is the U.S. government's official web portal to all federal, state and local government web resources and services.